Weather History for Moultrie, GA

Change the Weather History Date:

Wednesday, November 23, 2011

  Actual Average (KMUL) Record (KMUL)
Temperature  
Mean Temperature 66 °F -  
Max Temperature 73 °F 68 °F 87 °F (1941)
Min Temperature 57 °F 46 °F 25 °F (1956)
Cooling Degree Days 1    
Growing Degree Days 16 (Base 50)    
Moisture  
Dew Point 58 °F    
Average Humidity 73    
Maximum Humidity 94    
Minimum Humidity 46    
Precipitation  
Precipitation 0.00 in - - ()
Sea Level Pressure  
Sea Level Pressure 30.06 in    
Wind  
Wind Speed 6 mph (NW)    
Max Wind Speed 14 mph    
Max Gust Speed 17 mph    
Visibility 9 miles    
Events Rain , Thunderstorm    
Averages and records for this station are not official NWS values.
T = Trace of Precipitation, MM = Missing Value Source: NWS Daily Summary

Daily Weather History Graph

Daily Weather History Graph

Search for Another Location

Airport:

Trip Planner

Search our weather history database for the weather conditions in past years. The results will help you decide how hot, cold, wet, or windy it might be!

Date:

Astronomy

Nov. 23, 2011 Rise Set
Actual Time 7:08 AM EST 5:34 PM EST
Civil Twilight 6:42 AM EST 6:00 PM EST
Nautical Twilight 6:13 AM EST 6:29 PM EST
Astronomical Twilight 5:44 AM EST 6:58 PM EST
Moon 5:15 AM EST (11/23) 4:13 PM EST (11/23)
Length of Visible Light 11h 17m
Length of Day
10h 25m
Waning Crescent, 4% of the Moon is Illuminated
Nov 23
Waning Crescent
Nov 25
New
Dec 2
First Quarter
Dec 10
Full
Dec 17
Last Quarter

Hourly Weather History & Observations

Time (EST) Temp. Dew Point Humidity Pressure Visibility Wind Dir Wind Speed Gust Speed Precip Events Conditions
12:15 AM 69.8 °F 66.2 °F 88% 30.05 in 10.0 mi South 6.9 mph - N/A Rain Light Rain
12:35 AM 68.0 °F 66.2 °F 94% 30.05 in 7.0 mi South 6.9 mph - N/A Rain Rain
12:55 AM 68.0 °F 66.2 °F 94% 30.05 in 5.0 mi SW 3.5 mph - N/A Rain , Thunderstorm Thunderstorms and Rain
1:15 AM 68.0 °F 66.2 °F 94% 30.05 in 10.0 mi SW 4.6 mph - N/A   Overcast
1:35 AM 68.0 °F 66.2 °F 94% 30.03 in 10.0 mi Calm Calm - N/A   Mostly Cloudy
1:55 AM 68.0 °F 64.4 °F 88% 30.03 in 10.0 mi Calm Calm - N/A   Scattered Clouds
2:35 AM 68.0 °F 66.2 °F 94% 30.03 in 10.0 mi Calm Calm - N/A   Overcast
2:55 AM 68.0 °F 66.2 °F 94% 30.03 in 10.0 mi SSW 3.5 mph - N/A   Overcast
3:15 AM 68.0 °F 66.2 °F 94% 30.02 in 10.0 mi Calm Calm - N/A   Overcast
3:35 AM 68.0 °F 66.2 °F 94% 30.02 in 10.0 mi Calm Calm - N/A   Overcast
4:15 AM 68.0 °F 66.2 °F 94% 30.01 in 10.0 mi WSW 5.8 mph - N/A   Overcast
4:35 AM 68.0 °F 66.2 °F 94% 30.02 in 10.0 mi WSW 5.8 mph - N/A   Overcast
4:55 AM 68.0 °F 66.2 °F 94% 30.01 in 7.0 mi SW 6.9 mph - N/A   Overcast
5:15 AM 68.0 °F 64.4 °F 88% 30.00 in 7.0 mi WSW 4.6 mph - N/A   Overcast
5:35 AM 68.0 °F 64.4 °F 88% 29.99 in 7.0 mi Calm Calm - N/A   Overcast
5:55 AM 68.0 °F 64.4 °F 88% 30.00 in 7.0 mi WNW 5.8 mph - N/A   Overcast
6:15 AM 68.0 °F 64.4 °F 88% 30.00 in 7.0 mi West 3.5 mph - N/A   Overcast
6:35 AM 68.0 °F 64.4 °F 88% 30.01 in 7.0 mi WNW 4.6 mph - N/A   Overcast
6:55 AM 68.0 °F 64.4 °F 88% 30.02 in 7.0 mi WNW 4.6 mph - N/A   Overcast
7:15 AM 68.0 °F 64.4 °F 88% 30.03 in 10.0 mi NW 8.1 mph - N/A   Overcast
7:35 AM 66.2 °F 62.6 °F 88% 30.03 in 10.0 mi NW 4.6 mph - N/A   Overcast
7:55 AM 66.2 °F 62.6 °F 88% 30.03 in 10.0 mi Calm Calm - N/A   Overcast
8:15 AM 66.2 °F 62.6 °F 88% 30.05 in 10.0 mi WNW 4.6 mph - N/A   Overcast
8:35 AM 66.2 °F 62.6 °F 88% 30.06 in 10.0 mi WNW 3.5 mph - N/A   Mostly Cloudy
8:55 AM 66.2 °F 62.6 °F 88% 30.07 in 10.0 mi NW 8.1 mph - N/A   Overcast
9:15 AM 66.2 °F 62.6 °F 88% 30.07 in 10.0 mi WNW 5.8 mph - N/A   Mostly Cloudy
9:35 AM 68.0 °F 62.6 °F 83% 30.08 in 10.0 mi WNW 6.9 mph - N/A   Mostly Cloudy
9:55 AM 68.0 °F 60.8 °F 78% 30.08 in 10.0 mi NW 11.5 mph 17.3 mph N/A   Scattered Clouds
10:15 AM 69.8 °F 60.8 °F 73% 30.08 in 10.0 mi NW 8.1 mph - N/A   Scattered Clouds
10:35 AM 68.0 °F 59.0 °F 73% 30.08 in 10.0 mi NW 9.2 mph - N/A   Mostly Cloudy
10:55 AM 68.0 °F 59.0 °F 73% 30.08 in 10.0 mi WNW 8.1 mph - N/A   Overcast
11:15 AM 69.8 °F 59.0 °F 68% 30.08 in 10.0 mi WNW 11.5 mph 16.1 mph N/A   Scattered Clouds
11:35 AM 69.8 °F 55.4 °F 60% 30.08 in 10.0 mi West 10.4 mph 16.1 mph N/A   Scattered Clouds
11:55 AM 69.8 °F 57.2 °F 64% 30.08 in 10.0 mi WNW 6.9 mph - N/A   Scattered Clouds
12:15 PM 71.6 °F 55.4 °F 57% 30.06 in 10.0 mi NW 13.8 mph 17.3 mph N/A   Scattered Clouds
12:35 PM 71.6 °F 55.4 °F 57% 30.06 in 10.0 mi NW 9.2 mph - N/A   Mostly Cloudy
12:55 PM 71.6 °F 53.6 °F 53% 30.05 in 10.0 mi WNW 6.9 mph - N/A   Scattered Clouds
1:15 PM 71.6 °F 53.6 °F 53% 30.04 in 10.0 mi West 11.5 mph - N/A   Clear
1:35 PM 71.6 °F 55.4 °F 57% 30.03 in 10.0 mi WNW 8.1 mph - N/A   Scattered Clouds
1:55 PM 73.4 °F 55.4 °F 53% 30.03 in 10.0 mi NNW 9.2 mph - N/A   Scattered Clouds
2:15 PM 71.6 °F 53.6 °F 53% 30.03 in 10.0 mi WNW 6.9 mph - N/A   Scattered Clouds
2:35 PM 71.6 °F 51.8 °F 50% 30.03 in 10.0 mi WNW 10.4 mph 16.1 mph N/A   Clear
2:55 PM 73.4 °F 51.8 °F 47% 30.02 in 10.0 mi NNW 9.2 mph - N/A   Clear
3:15 PM 71.6 °F 51.8 °F 50% 30.02 in 3.0 mi WNW 9.2 mph - N/A   Haze
3:35 PM 73.4 °F 51.8 °F 47% 30.02 in 2.5 mi NW 9.2 mph - N/A   Haze
4:15 PM 71.6 °F 50.0 °F 46% 30.04 in 10.0 mi NNW 10.4 mph - N/A   Clear
4:35 PM 69.8 °F 50.0 °F 49% 30.05 in 10.0 mi NNW 11.5 mph - N/A   Clear
4:55 PM 69.8 °F 51.8 °F 53% 30.05 in 10.0 mi NNW 6.9 mph - N/A   Clear
5:15 PM 68.0 °F 51.8 °F 56% 30.06 in 10.0 mi NNW 6.9 mph - N/A   Clear
5:35 PM 68.0 °F 50.0 °F 52% 30.06 in 10.0 mi NW 8.1 mph - N/A   Clear
5:55 PM 64.4 °F 50.0 °F 59% 30.07 in 10.0 mi NNW 9.2 mph - N/A   Clear
6:15 PM 64.4 °F 50.0 °F 59% 30.08 in 10.0 mi NNW 6.9 mph - N/A   Clear
6:55 PM 62.6 °F 50.0 °F 63% 30.09 in 10.0 mi North 6.9 mph - N/A   Clear
7:15 PM 62.6 °F 50.0 °F 63% 30.10 in 10.0 mi NNW 5.8 mph - N/A   Clear
7:35 PM 60.8 °F 50.0 °F 68% 30.11 in 10.0 mi NW 6.9 mph - N/A   Clear
7:55 PM 60.8 °F 48.2 °F 63% 30.12 in 10.0 mi NNW 6.9 mph - N/A   Clear
8:15 PM 60.8 °F 48.2 °F 63% 30.12 in 10.0 mi North 5.8 mph - N/A   Clear
8:35 PM 60.8 °F 46.4 °F 59% 30.13 in 10.0 mi NNW 4.6 mph - N/A   Clear
8:55 PM 59.0 °F 46.4 °F 63% 30.14 in 10.0 mi NNW 4.6 mph - N/A   Clear
9:15 PM 59.0 °F 46.4 °F 63% 30.14 in 10.0 mi NNW 5.8 mph - N/A   Clear
9:35 PM 59.0 °F 46.4 °F 63% 30.15 in 10.0 mi NNW 6.9 mph - N/A   Clear
9:55 PM 59.0 °F 46.4 °F 63% 30.16 in 10.0 mi NNW 6.9 mph - N/A   Clear
10:15 PM 57.2 °F 46.4 °F 67% 30.17 in 10.0 mi North 8.1 mph - N/A   Clear
10:35 PM 55.4 °F 46.4 °F 72% 30.17 in 10.0 mi North 6.9 mph - N/A   Clear
10:55 PM 55.4 °F 46.4 °F 72% 30.18 in 10.0 mi North 5.8 mph - N/A   Clear
11:15 PM 55.4 °F 44.6 °F 67% 30.18 in 10.0 mi North 8.1 mph - N/A   Clear
11:35 PM 53.6 °F 44.6 °F 72% 30.18 in 10.0 mi North 6.9 mph - N/A   Clear
11:55 PM 53.6 °F 44.6 °F 72% 30.18 in 10.0 mi North 6.9 mph - N/A   Clear